Hourly Weather Lugi

Today, 20 June, Sunday

Time Temperature Precipitation Wind Pressure Humidity
00:00 +21°C° 0 mm 3 mps 740 mmHg 79%
01:00 +21°C° 0 mm 4 mps 740 mmHg 79%
02:00 +20°C° 0 mm 3 mps 739 mmHg 80%
03:00 +19°C° 0 mm 3 mps 739 mmHg 82%
04:00 +19°C° 0 mm 3 mps 739 mmHg 83%
05:00 +20°C° 0 mm 3 mps 739 mmHg 76%
06:00 +22°C° 0 mm 4 mps 739 mmHg 69%
07:00 +23°C° 0 mm 4 mps 739 mmHg 63%
08:00 +26°C° 0 mm 4 mps 739 mmHg 57%
09:00 +27°C° 0 mm 4 mps 739 mmHg 51%
10:00 +29°C° 0 mm 4 mps 739 mmHg 45%
11:00 +30°C° 0 mm 4 mps 739 mmHg 43%
12:00 +30°C° 0 mm 4 mps 739 mmHg 41%
13:00 +31°C° 0 mm 3 mps 739 mmHg 39%
14:00 +32°C° 0 mm 4 mps 738 mmHg 40%
15:00 +32°C° 0 mm 4 mps 738 mmHg 41%
16:00 +32°C° 0 mm 4 mps 738 mmHg 42%
17:00 +29°C° 0 mm 4 mps 737 mmHg 49%
18:00 +28°C° 0 mm 4 mps 737 mmHg 57%
19:00 +26°C° 0 mm 4 mps 737 mmHg 64%
20:00 +25°C° 0 mm 4 mps 737 mmHg 68%
21:00 +23°C° 0 mm 4 mps 737 mmHg 71%
22:00 +22°C° 0 mm 4 mps 737 mmHg 74%
23:00 +21°C° 0 mm 4 mps 737 mmHg 78%

Tomorrow, 21 June, Monday

Time Temperature Precipitation Wind Pressure Humidity
00:00 +21°C° 0 mm 3 mps 736 mmHg 82%
01:00 +20°C° 0 mm 3 mps 736 mmHg 85%
02:00 +19°C° 0 mm 3 mps 736 mmHg 86%
03:00 +19°C° 0 mm 3 mps 735 mmHg 87%
04:00 +19°C° 0 mm 3 mps 735 mmHg 87%
05:00 +20°C° 0 mm 3 mps 735 mmHg 82%
06:00 +22°C° 0 mm 3 mps 735 mmHg 76%
07:00 +23°C° 0 mm 4 mps 736 mmHg 71%
08:00 +26°C° 0 mm 3 mps 736 mmHg 64%
09:00 +28°C° 0 mm 3 mps 736 mmHg 58%
10:00 +30°C° 0 mm 2 mps 736 mmHg 51%
11:00 +31°C° 0 mm 2 mps 736 mmHg 48%
12:00 +32°C° 0 mm 2 mps 735 mmHg 45%
13:00 +32°C° 0 mm 2 mps 735 mmHg 41%
14:00 +32°C° 0 mm 2 mps 735 mmHg 42%
15:00 +33°C° 0 mm 3 mps 735 mmHg 43%
16:00 +33°C° 0 mm 3 mps 734 mmHg 44%
17:00 +30°C° 0 mm 3 mps 735 mmHg 51%
18:00 +29°C° 0 mm 3 mps 735 mmHg 58%
19:00 +27°C° 0 mm 3 mps 735 mmHg 66%
20:00 +25°C° 1 mm 3 mps 735 mmHg 75%
21:00 +22°C° 1 mm 4 mps 736 mmHg 84%
22:00 +19°C° 1 mm 5 mps 736 mmHg 93%
23:00 +20°C° 0.5 mm 4 mps 736 mmHg 92%

Day after tomorrow, 22 June, Tuesday

Time Temperature Precipitation Wind Pressure Humidity
00:00 +20°C° 0.5 mm 2 mps 736 mmHg 91%
01:00 +21°C° 0.5 mm 1 mps 736 mmHg 89%
02:00 +20°C° 0 mm 1 mps 736 mmHg 91%
03:00 +19°C° 0 mm 2 mps 736 mmHg 93%
04:00 +19°C° 0 mm 2 mps 736 mmHg 95%
05:00 +20°C° 0 mm 2 mps 736 mmHg 90%
06:00 +21°C° 0 mm 2 mps 737 mmHg 85%
07:00 +23°C° 0 mm 2 mps 737 mmHg 79%
08:00 +24°C° 0 mm 2 mps 737 mmHg 73%
09:00 +26°C° 0 mm 2 mps 738 mmHg 67%
10:00 +27°C° 0 mm 2 mps 738 mmHg 61%
11:00 +28°C° 0 mm 2 mps 738 mmHg 59%
12:00 +28°C° 0 mm 2 mps 738 mmHg 57%
13:00 +29°C° 0 mm 3 mps 738 mmHg 55%
14:00 +29°C° 0 mm 3 mps 738 mmHg 56%
15:00 +29°C° 0 mm 3 mps 738 mmHg 57%
16:00 +29°C° 0 mm 3 mps 738 mmHg 58%
17:00 +28°C° 0.3 mm 3 mps 738 mmHg 64%
18:00 +27°C° 0.3 mm 2 mps 738 mmHg 70%
19:00 +25°C° 0.3 mm 2 mps 738 mmHg 76%
20:00 +24°C° 0.4 mm 2 mps 738 mmHg 80%
21:00 +23°C° 0.4 mm 2 mps 738 mmHg 85%
22:00 +21°C° 0.4 mm 2 mps 739 mmHg 89%
23:00 +21°C° 0.5 mm 2 mps 739 mmHg 90%

23 June, Wednesday

Time Temperature Precipitation Wind Pressure Humidity
00:00 +22°C° 0.5 mm 1 mps 739 mmHg 91%
01:00 +21°C° 0.5 mm 1 mps 739 mmHg 92%
02:00 +21°C° 0.1 mm 1 mps 739 mmHg 93%
03:00 +21°C° 0.1 mm 1 mps 739 mmHg 94%
04:00 +20°C° 0.1 mm 2 mps 739 mmHg 95%
05:00 +20°C° 0.2 mm 2 mps 740 mmHg 93%
06:00 +21°C° 0.2 mm 2 mps 740 mmHg 91%
07:00 +23°C° 0.2 mm 2 mps 740 mmHg 88%
08:00 +24°C° 0 mm 2 mps 740 mmHg 83%
09:00 +25°C° 0 mm 2 mps 741 mmHg 77%
10:00 +26°C° 0 mm 2 mps 741 mmHg 72%
11:00 +27°C° 0.4 mm 2 mps 741 mmHg 69%
12:00 +28°C° 0.4 mm 2 mps 741 mmHg 66%
13:00 +29°C° 0.4 mm 2 mps 741 mmHg 63%
14:00 +29°C° 0.6 mm 2 mps 741 mmHg 62%
15:00 +29°C° 0.6 mm 2 mps 741 mmHg 62%
16:00 +29°C° 0.6 mm 2 mps 741 mmHg 61%
17:00 +28°C° 0.2 mm 2 mps 741 mmHg 67%
18:00 +27°C° 0.2 mm 2 mps 741 mmHg 72%
19:00 +26°C° 0.2 mm 2 mps 741 mmHg 78%
20:00 +25°C° 0.9 mm 2 mps 741 mmHg 83%
21:00 +23°C° 0.9 mm 2 mps 742 mmHg 88%
22:00 +21°C° 0.9 mm 2 mps 742 mmHg 93%
23:00 +20°C° 0.1 mm 2 mps 742 mmHg 94%

24 June, Thursday

Time Temperature Precipitation Wind Pressure Humidity
00:00 +20°C° 0.1 mm 2 mps 741 mmHg 95%
01:00 +19°C° 0.1 mm 2 mps 741 mmHg 96%
02:00 +19°C° 0 mm 2 mps 741 mmHg 96%
03:00 +19°C° 0 mm 2 mps 741 mmHg 96%
04:00 +19°C° 0 mm 2 mps 741 mmHg 96%
05:00 +20°C° 0 mm 2 mps 741 mmHg 92%
06:00 +23°C° 0 mm 2 mps 741 mmHg 88%
07:00 +24°C° 0 mm 2 mps 741 mmHg 84%
08:00 +26°C° 0 mm 2 mps 741 mmHg 76%
09:00 +28°C° 0 mm 2 mps 741 mmHg 69%
10:00 +29°C° 0 mm 1 mps 741 mmHg 62%
11:00 +30°C° 0 mm 2 mps 740 mmHg 57%
12:00 +32°C° 0 mm 2 mps 740 mmHg 52%
13:00 +34°C° 0 mm 2 mps 740 mmHg 47%
14:00 +32°C° 0 mm 2 mps 739 mmHg 50%
15:00 +32°C° 0 mm 2 mps 739 mmHg 53%
16:00 +31°C° 0 mm 2 mps 739 mmHg 55%
17:00 +28°C° 2.9 mm 3 mps 738 mmHg 66%
18:00 +25°C° 2.9 mm 4 mps 738 mmHg 76%
19:00 +21°C° 2.9 mm 4 mps 738 mmHg 87%
20:00 +20°C° 1.6 mm 3 mps 738 mmHg 88%
21:00 +20°C° 1.6 mm 2 mps 738 mmHg 89%
22:00 +20°C° 1.6 mm 2 mps 738 mmHg 90%
23:00 +20°C° 0.1 mm 2 mps 738 mmHg 91%

25 June, Friday

Time Temperature Precipitation Wind Pressure Humidity
00:00 +19°C° 0.1 mm 2 mps 738 mmHg 91%
01:00 +19°C° 0.1 mm 2 mps 738 mmHg 91%
02:00 +19°C° 0.3 mm 2 mps 738 mmHg 93%
03:00 +19°C° 0.3 mm 2 mps 738 mmHg 95%
04:00 +18°C° 0.3 mm 2 mps 738 mmHg 97%
05:00 +19°C° 0.1 mm 3 mps 738 mmHg 95%
06:00 +19°C° 0.1 mm 4 mps 738 mmHg 92%
07:00 +20°C° 0.1 mm 4 mps 738 mmHg 90%
08:00 +20°C° 0.1 mm 4 mps 738 mmHg 86%
09:00 +21°C° 0.1 mm 5 mps 738 mmHg 82%
10:00 +22°C° 0.1 mm 5 mps 739 mmHg 77%
11:00 +22°C° 0.1 mm 5 mps 739 mmHg 72%
12:00 +23°C° 0.1 mm 5 mps 739 mmHg 67%
13:00 +25°C° 0.1 mm 5 mps 739 mmHg 61%
14:00 +25°C° 0 mm 5 mps 739 mmHg 60%
15:00 +24°C° 0 mm 6 mps 739 mmHg 58%
16:00 +24°C° 0 mm 6 mps 739 mmHg 56%
17:00 +23°C° 0 mm 5 mps 739 mmHg 63%
18:00 +22°C° 0 mm 5 mps 739 mmHg 69%
19:00 +21°C° 0 mm 4 mps 739 mmHg 76%
20:00 +20°C° 0.1 mm 3 mps 739 mmHg 82%
21:00 +18°C° 0.1 mm 3 mps 740 mmHg 88%
22:00 +17°C° 0.1 mm 2 mps 740 mmHg 94%
23:00 +17°C° 0 mm 2 mps 740 mmHg 95%
Show more

We Need Your Consent

Meteoprog and our Service Providers may store and access personal data such as cookies, device identifiers or other similar technologies on your device and process such data to personalise content and ads, as well as provide social media features and to analyse the traffic.

  • Store and/or access information on your device

    Cookies, device identifiers or other information can be stored or accessed on your device for the purposes indicated above.

  • Personalised ads and content, ad and content measurement, audience insights, and products development

    Ads and content can be personalised based on a profile. More data can be added to better personalise ads and content. Ad and content performance can be measured. Insights about the audience who saw the ads and content can be derived. Such data can be used to develop or improve user’s experience, systems and software.

By clicking ‘I Agree’ you will allow the use of indicated cookies, device identifiers, web beacons or other similar technologies. Your settings can be changed in the browser on your device.

For certain purposes, legitimate interests may be relied on, rather than consent. You can read more about this in our Privacy and Cookie Policy.